Total_Precipitation_Accumulation
1.59 1.60 1.53 1.46 1.34 1.24 1.16 1.14 1.07 0.97 0.92 0.90 0.86 0.84 0.81 0.79 0.77 0.75 0.74 0.72 0.79 0.91 0.98 1.03 1.07 1.11 1.17 1.22 1.28 1.36 1.48 1.57 1.67 1.64 1.48 1.43 1.43 1.40 1.33 1.14 1.05 1.01 1.04
1.16 1.12 1.10 1.05 0.99 0.95 0.93 0.91 0.94 0.90 0.83 0.82 0.80 0.80 0.81 0.82 0.82 0.78 0.71 0.69 0.74 0.82 0.88 0.91 0.91 0.92 0.97 1.04 1.11 1.14 1.22 1.33 1.45 1.55 1.47 1.34 1.30 1.29 1.24 1.16 1.00 0.89 0.88
0.99 0.94 0.91 0.93 0.92 0.90 0.91 0.91 0.92 0.88 0.82 0.77 0.73 0.75 0.80 0.80 0.77 0.74 0.69 0.69 0.68 0.72 0.74 0.75 0.77 0.80 0.81 0.85 0.88 0.94 1.00 1.05 1.17 1.23 1.24 1.18 1.14 1.08 1.10 1.08 0.97 0.97 0.84
0.95 0.88 0.78 0.75 0.78 0.81 0.80 0.81 0.80 0.77 0.77 0.77 0.76 0.72 0.70 0.66 0.58 0.53 0.52 0.53 0.52 0.54 0.56 0.58 0.64 0.71 0.71 0.73 0.72 0.75 0.81 0.89 0.98 1.05 1.05 1.04 1.02 0.95 0.97 1.01 0.98 0.91 0.81
1.04 0.98 0.88 0.79 0.78 0.78 0.77 0.77 0.74 0.70 0.65 0.63 0.61 0.57 0.48 0.40 0.37 0.35 0.38 0.40 0.42 0.44 0.45 0.44 0.45 0.51 0.58 0.58 0.56 0.63 0.73 0.83 0.87 0.92 0.89 0.84 0.84 0.88 0.89 0.86 0.83 0.79 0.74
1.14 1.19 1.18 1.09 1.02 0.98 0.89 0.80 0.77 0.74 0.65 0.55 0.49 0.47 0.40 0.31 0.31 0.28 0.30 0.36 0.40 0.41 0.43 0.44 0.41 0.42 0.43 0.43 0.47 0.60 0.74 0.77 0.80 0.86 0.84 0.83 0.82 0.81 0.82 0.82 0.85 0.86 0.85
1.18 1.20 1.17 1.12 1.06 1.00 0.90 0.79 0.77 0.76 0.72 0.66 0.54 0.46 0.43 0.35 0.28 0.25 0.28 0.36 0.41 0.42 0.41 0.41 0.36 0.35 0.39 0.41 0.46 0.53 0.60 0.62 0.68 0.80 0.89 0.87 0.87 0.88 0.90 0.86 0.90 0.93 0.89
1.21 1.16 1.09 1.00 0.91 0.82 0.79 0.75 0.72 0.69 0.69 0.66 0.58 0.51 0.43 0.32 0.23 0.20 0.22 0.32 0.40 0.41 0.41 0.42 0.44 0.43 0.42 0.44 0.45 0.48 0.57 0.63 0.65 0.67 0.81 0.81 0.77 0.80 0.84 0.87 0.91 0.91 0.89
1.18 1.07 0.93 0.87 0.83 0.75 0.72 0.67 0.63 0.60 0.58 0.55 0.50 0.47 0.46 0.37 0.22 0.17 0.19 0.33 0.43 0.41 0.35 0.33 0.37 0.41 0.43 0.42 0.45 0.56 0.62 0.67 0.56 0.57 0.66 0.72 0.74 0.76 0.73 0.77 0.94 1.07 1.03
0.93 0.78 0.69 0.70 0.71 0.66 0.62 0.58 0.55 0.54 0.53 0.46 0.42 0.42 0.42 0.38 0.25 0.20 0.22 0.33 0.43 0.40 0.36 0.34 0.32 0.33 0.34 0.35 0.44 0.57 0.68 0.68 0.60 0.62 0.76 0.85 0.83 0.89 0.84 0.85 1.05 1.11 1.05
0.78 0.67 0.62 0.59 0.56 0.55 0.53 0.53 0.52 0.50 0.54 0.52 0.50 0.45 0.39 0.30 0.21 0.17 0.19 0.26 0.36 0.39 0.40 0.41 0.37 0.27 0.25 0.28 0.37 0.48 0.57 0.54 0.63 0.79 0.87 0.89 0.92 0.96 0.91 0.86 0.96 1.03 1.09
0.74 0.70 0.65 0.56 0.48 0.49 0.59 0.57 0.54 0.58 0.61 0.60 0.56 0.50 0.38 0.29 0.18 0.15 0.17 0.21 0.24 0.34 0.43 0.41 0.37 0.29 0.27 0.30 0.36 0.45 0.48 0.55 0.73 0.89 0.94 0.94 0.87 0.86 0.86 0.81 0.86 0.88 0.94
0.78 0.76 0.64 0.52 0.55 0.56 0.60 0.57 0.50 0.49 0.45 0.42 0.42 0.42 0.36 0.29 0.22 0.16 0.18 0.20 0.22 0.26 0.32 0.29 0.28 0.30 0.33 0.45 0.46 0.46 0.55 0.74 0.86 0.90 0.96 0.97 0.87 0.78 0.73 0.68 0.72 0.82 0.84
0.86 0.78 0.61 0.51 0.50 0.50 0.49 0.42 0.36 0.36 0.35 0.34 0.33 0.31 0.32 0.32 0.27 0.22 0.22 0.23 0.24 0.27 0.30 0.30 0.35 0.42 0.47 0.55 0.62 0.70 0.75 0.80 0.80 0.86 0.89 0.86 0.75 0.70 0.71 0.69 0.73 0.80 0.86
0.84 0.70 0.57 0.46 0.43 0.41 0.34 0.26 0.22 0.20 0.18 0.23 0.24 0.22 0.26 0.26 0.21 0.21 0.22 0.22 0.22 0.22 0.25 0.39 0.58 0.64 0.70 0.75 0.79 0.84 0.88 0.83 0.77 0.77 0.79 0.78 0.74 0.70 0.68 0.64 0.69 0.73 0.78
0.75 0.57 0.46 0.40 0.36 0.30 0.27 0.25 0.17 0.12 0.10 0.09 0.10 0.11 0.12 0.14 0.15 0.16 0.18 0.20 0.21 0.24 0.30 0.51 0.62 0.66 0.71 0.72 0.72 0.77 0.82 0.82 0.75 0.70 0.71 0.71 0.70 0.67 0.67 0.62 0.62 0.71 0.77
0.60 0.44 0.33 0.31 0.31 0.28 0.26 0.31 0.31 0.19 0.11 0.09 0.09 0.10 0.11 0.11 0.12 0.13 0.17 0.21 0.26 0.35 0.46 0.58 0.61 0.64 0.68 0.63 0.63 0.68 0.72 0.71 0.64 0.61 0.61 0.59 0.57 0.57 0.61 0.61 0.59 0.59 0.58
0.32 0.23 0.19 0.23 0.23 0.21 0.19 0.21 0.25 0.29 0.29 0.23 0.15 0.12 0.11 0.12 0.14 0.16 0.21 0.28 0.40 0.48 0.55 0.58 0.59 0.59 0.60 0.60 0.58 0.58 0.56 0.51 0.47 0.49 0.53 0.53 0.52 0.53 0.54 0.55 0.49 0.46 0.49
0.19 0.17 0.15 0.15 0.14 0.14 0.13 0.14 0.15 0.19 0.28 0.30 0.22 0.14 0.13 0.18 0.21 0.25 0.30 0.38 0.47 0.50 0.50 0.51 0.51 0.50 0.50 0.55 0.53 0.47 0.44 0.42 0.39 0.38 0.41 0.45 0.46 0.45 0.47 0.44 0.38 0.31 0.35
0.12 0.10 0.11 0.11 0.12 0.11 0.11 0.12 0.14 0.16 0.20 0.22 0.21 0.16 0.16 0.25 0.36 0.39 0.38 0.39 0.40 0.40 0.41 0.43 0.41 0.39 0.41 0.42 0.38 0.37 0.36 0.37 0.33 0.31 0.31 0.32 0.34 0.36 0.36 0.34 0.30 0.29 0.31
0.06 0.05 0.05 0.07 0.10 0.10 0.09 0.10 0.11 0.12 0.16 0.17 0.15 0.12 0.17 0.26 0.37 0.38 0.40 0.38 0.37 0.38 0.39 0.38 0.35 0.33 0.32 0.31 0.31 0.33 0.32 0.32 0.31 0.31 0.29 0.27 0.27 0.28 0.25 0.23 0.22 0.20 0.21
0.05 0.05 0.05 0.06 0.07 0.07 0.07 0.08 0.10 0.11 0.12 0.13 0.14 0.12 0.18 0.26 0.34 0.38 0.41 0.39 0.36 0.34 0.33 0.33 0.30 0.30 0.27 0.26 0.27 0.26 0.25 0.25 0.26 0.28 0.27 0.25 0.23 0.22 0.21 0.18 0.18 0.20 0.20
0.04 0.04 0.04 0.04 0.04 0.05 0.06 0.07 0.07 0.08 0.08 0.10 0.12 0.14 0.19 0.27 0.34 0.38 0.38 0.33 0.27 0.24 0.26 0.28 0.27 0.25 0.23 0.21 0.18 0.18 0.16 0.15 0.17 0.21 0.23 0.21 0.22 0.19 0.18 0.17 0.16 0.20 0.20
0.03 0.03 0.03 0.03 0.03 0.04 0.05 0.05 0.05 0.05 0.06 0.08 0.12 0.13 0.16 0.23 0.27 0.28 0.30 0.25 0.21 0.19 0.20 0.20 0.21 0.18 0.15 0.14 0.14 0.12 0.12 0.11 0.10 0.12 0.14 0.16 0.17 0.16 0.15 0.15 0.15 0.17 0.20
0.01 0.02 0.03 0.02 0.02 0.03 0.03 0.03 0.04 0.05 0.07 0.09 0.11 0.12 0.11 0.13 0.15 0.18 0.20 0.22 0.20 0.18 0.16 0.15 0.14 0.12 0.10 0.10 0.09 0.08 0.09 0.09 0.08 0.07 0.08 0.09 0.11 0.12 0.15 0.19 0.19 0.19 0.21
0.01 0.02 0.02 0.02 0.02 0.03 0.02 0.03 0.04 0.05 0.06 0.08 0.08 0.09 0.09 0.10 0.12 0.13 0.14 0.15 0.15 0.15 0.14 0.13 0.12 0.10 0.10 0.11 0.10 0.10 0.09 0.07 0.06 0.07 0.08 0.08 0.10 0.11 0.14 0.17 0.18 0.21 0.25